Showing default

OVZON-3, 58698

Orbit data source: Space-Track

OVZON-3, 58698 is a payload satellite owned by Ovzon (SE) in GEO that was launched on Wed, 03 Jan 2024 UTC via an FALCON 9 launch vehicle from the Air Force Eastern Test Range (AFETR). Payload-class satellites include a variety of spacecraft equipped with specific instruments for various scientific and technological missions. These include communications satellites like Starlink; space stations such as the ISS; scientific satellites like the Hubble; Earth observation satellites from companies like Planet Labs, Umbra, and HawkEye 360; GPS; miniature CubeSats for education and research; and military/defense satellites.

Not visible in the next 10 days
Identifier
58698, 2024-003A
Orbit
GEO
Country
Flag of SESE / SWED
Related business
Manufacturer
Maxar Space Sol
Mission
Operational Commercial Communications
Bus & Motor
SSL-500, AOCS
Mass
~1,800 kg wet, ~1,500 kg dry
Launch date (UTC)
2024-01-03 (2 years ago)
Launch vehicle
FALCON 9
Launch site
Air Force Eastern Test Range (AFETR)
Object type
Payload
Rocket body
Debris
Shape & HBR
Box + 2 Pan, 13.5 m
Radar Cross Section
21.427 m², Large (>1 m²)

Expand to show TLE details & history
Last TLE update: 2 days ago

TLE from 2 days ago
0 OVZON-3
1 58698U 24003A   26171.11865681  .00000046  00000-0  00000-0 0  9998
2 58698   0.0048 130.8972 0000034 159.5336  80.2964  1.00272956  7478
Epoch: 2026-06-20T02:50Z
TLE epoch observation values (Epoch: 2026-06-20T02:50:51.948Z)
Latitude
-0.00322°
Longitude
59.68578°
Altitude
35,785.734 km
Speed
3.075 km/s
True Right ascension
00h 42m 57s
True Declination
0° 00' 12"
Sunlit
Object was in daylight at epoch
Visualization orbit readout
Latitude
Unknown
Longitude
Unknown
Altitude
Unknown
Speed
Unknown
Apparent Right ascension
Unknown
Apparent Declination
Unknown
Sunlit
N/A
Visualization observer readout
Local Sidereal Time
21:36:00
Azimuth
Unknown
Elevation
Unknown
Doppler factor
Unknown
Orbital elements
Apogee altitude
35,787.48 km
Perigee altitude
35,787.194 km
Semi-major axis
42,165.474 km
Eccentricity
0
Inclination
0.0048°
RAAN
130.8972°
Arg. of periapsis
159.5336°
True anomaly
80.29678°
Mean anomaly
80.2964°
Eccentric anomaly
80.29659°
Mean motion
0.25067 °/min
Orbital period
1,436.13 mins
BSTAR
0
Loading maneuver chart data...
Computing Atmospheric mass density...
Loading historical data...
Loading historical data...
Loading historical data...
Loading historical data...
Loading historical data...
Loading historical data...
Loading historical data...
Other satellites on launch #3 in the year 2024 (2024-01-03 UTC)

Documentation

Showing up to 5 results
|